Location: Rotheul
(50.2849°N, 11.2349°E)
Time: 17:05:12
(UTC+02:00)

ISS - Pass Details

Date: 12 October 2018
Orbit: 403 x 408 km, 51.6° (Epoch: 17 October)

Event Time Altitude Azimuth Distance (km) Brightness Sun altitude
Rises 19:10:43 0° 284° (WNW) 2,338 1.8 -7.3°
Reaches altitude 10° 19:13:10 10° 266° (W) 1,473 0.8 -7.7°
Maximum altitude 19:15:38 20° 218° (SW) 1,024 -1.2 -8.1°
Drops below altitude 10° 19:18:06 10° 169° (S) 1,465 -1.1 -8.5°
Sets 19:20:32 0° 152° (SSE) 2,321 -0.3 -8.8°
